User: anonymous   Login
Location: Unspecified
(0.0000°N, 0.0000°E)
Time: 07:20:25
(UTC+00:00)
Language:

Microlab 1 - Orbit

View from above orbital plane
View from above orbital plane
View from above satellite
View from above satellite

Ground track
Ground track

The orbit data is extracted from the following two-line orbital elements,

1 23547U 95017C   18174.89277676 +.00000127 +00000-0 +40740-4 0  9995
2 23547 069.9795 331.2855 0011872 223.1739 136.8470 14.59660695232288
Epoch (UTC): 23 June 2018 21:25:35
Eccentricity: 0.0011872
inclination: 69.9795°
perigee height: 686 km
apogee height: 702 km
right ascension of ascending node: 331.2855°
argument of perigee: 223.1739°
revolutions per day: 14.59660695
mean anomaly at epoch: 136.8470°
orbit number at epoch: 23228

The dashed part of the orbit path shows where the satellite is in the earth's shadow,  

DLR